| time (UTC) | temp F | wind direction | speed MPH | gust MPH | rain 1hr in | rain 24hr in | rain mn in | humidity % | barometer mb |
| 20260902083538 | 76 | 0.0 | 0.0 | 0.00 | 0.20 | 0.00 | 82 | 1015.0 | |
| 20260902082515 | 76 | 0.0 | 0.0 | 0.00 | 0.20 | 0.00 | 81 | 1014.8 | |
| 20260902081536 | 76 | 0.0 | 0.0 | 0.00 | 0.20 | 0.00 | 81 | 1014.8 | |
| 20260902080516 | 77 | 0.0 | 0.0 | 0.00 | 0.20 | 0.00 | 80 | 1014.8 | |
| 20260902075516 | 77 | 0.0 | 0.0 | 0.00 | 0.20 | 0.00 | 79 | 1014.7 | |
| 20260902074516 | 77 | 223 | 0.0 | 3.0 | 0.00 | 0.20 | 0.00 | 79 | 1014.8 |
| 20260902073516 | 77 | 232 | 0.0 | 3.0 | 0.00 | 0.20 | 0.00 | 79 | 1014.7 |
| 20260902072516 | 78 | 302 | 0.0 | 1.0 | 0.00 | 0.20 | 0.00 | 79 | 1014.6 |
| 20260902071517 | 78 | 168 | 0.0 | 2.0 | 0.00 | 0.20 | 0.00 | 78 | 1014.7 |
| 20260902070517 | 78 | 148 | 0.0 | 3.0 | 0.00 | 0.20 | 0.00 | 77 | 1014.8 |
| 20260902065517 | 79 | 212 | 0.0 | 2.0 | 0.00 | 0.20 | 0.00 | 77 | 1014.8 |
| 20260902064518 | 79 | 217 | 0.0 | 3.0 | 0.00 | 0.20 | 0.00 | 76 | 1014.9 |
| 20260902063518 | 79 | 202 | 1.0 | 3.0 | 0.00 | 0.20 | 0.00 | 76 | 1014.9 |
| 20260902062538 | 79 | 177 | 1.0 | 3.0 | 0.00 | 0.20 | 0.00 | 75 | 1014.8 |
| 20260902061517 | 80 | 233 | 1.0 | 5.0 | 0.00 | 0.20 | 0.00 | 75 | 1014.8 |
| 20260902060519 | 80 | 232 | 1.0 | 4.0 | 0.00 | 0.20 | 0.00 | 75 | 1014.8 |
| 20260902055518 | 80 | 244 | 1.0 | 4.0 | 0.00 | 0.20 | 0.00 | 75 | 1014.9 |
| 20260902054518 | 80 | 225 | 1.0 | 3.0 | 0.00 | 0.20 | 0.00 | 75 | 1014.9 |
| 20260902053515 | 80 | 241 | 1.0 | 6.0 | 0.00 | 0.20 | 0.00 | 74 | 1014.9 |
| 20260902052516 | 80 | 233 | 1.0 | 3.0 | 0.00 | 0.20 | 0.00 | 75 | 1014.9 |
| 20260902051516 | 80 | 238 | 0.0 | 3.0 | 0.00 | 0.20 | 0.00 | 75 | 1014.9 |
| 20260902050556 | 80 | 238 | 0.0 | 3.0 | 0.00 | 0.20 | 0.00 | 75 | 1015.0 |
| 20260902045516 | 80 | 233 | 0.0 | 2.0 | 0.00 | 0.20 | 0.20 | 74 | 1015.0 |
| 20260902044516 | 81 | 241 | 0.0 | 2.0 | 0.00 | 0.20 | 0.20 | 74 | 1015.0 |
| 20260902043516 | 81 | 249 | 0.0 | 2.0 | 0.00 | 0.20 | 0.20 | 74 | 1015.0 |
| 20260902042516 | 81 | 249 | 0.0 | 2.0 | 0.00 | 0.20 | 0.20 | 73 | 1015.1 |
| 20260902041517 | 82 | 228 | 1.0 | 3.0 | 0.00 | 0.20 | 0.20 | 72 | 1015.0 |
| 20260902040517 | 82 | 247 | 1.0 | 4.0 | 0.00 | 0.20 | 0.20 | 72 | 1015.1 |
| 20260902035517 | 82 | 241 | 1.0 | 4.0 | 0.00 | 0.20 | 0.20 | 73 | 1015.1 |
| 20260902034517 | 82 | 222 | 1.0 | 3.0 | 0.00 | 0.20 | 0.20 | 73 | 1015.1 |
| 20260902033517 | 82 | 238 | 1.0 | 3.0 | 0.00 | 0.20 | 0.20 | 73 | 1015.1 |
| 20260902032517 | 82 | 218 | 1.0 | 3.0 | 0.00 | 0.20 | 0.20 | 73 | 1015.1 |
| 20260902031518 | 82 | 214 | 0.0 | 3.0 | 0.00 | 0.20 | 0.20 | 73 | 1015.1 |
| 20260902030518 | 83 | 224 | 0.0 | 4.0 | 0.00 | 0.20 | 0.20 | 73 | 1015.1 |
| 20260902025518 | 83 | 224 | 1.0 | 4.0 | 0.00 | 0.20 | 0.20 | 73 | 1015.1 |
| 20260902024515 | 83 | 219 | 1.0 | 4.0 | 0.00 | 0.20 | 0.20 | 72 | 1015.1 |
| 20260902023516 | 83 | 240 | 1.0 | 4.0 | 0.00 | 0.20 | 0.20 | 71 | 1015.1 |
| 20260902022516 | 83 | 240 | 1.0 | 4.0 | 0.00 | 0.20 | 0.20 | 71 | 1015.0 |
| 20260902021516 | 84 | 248 | 1.0 | 3.0 | 0.00 | 0.20 | 0.20 | 71 | 1015.0 |
| 20260902020536 | 84 | 248 | 1.0 | 2.0 | 0.00 | 0.20 | 0.20 | 71 | 1014.9 |
| 20260902015517 | 84 | 240 | 1.0 | 5.0 | 0.00 | 0.20 | 0.20 | 71 | 1014.8 |
| 20260902014516 | 84 | 246 | 1.0 | 4.0 | 0.00 | 0.20 | 0.20 | 72 | 1014.7 |
| 20260902013516 | 85 | 241 | 1.0 | 5.0 | 0.00 | 0.20 | 0.20 | 72 | 1014.6 |
| 20260902012517 | 85 | 238 | 0.0 | 3.0 | 0.00 | 0.20 | 0.20 | 71 | 1014.5 |
| 20260902011537 | 86 | 243 | 1.0 | 4.0 | 0.00 | 0.20 | 0.20 | 70 | 1014.5 |
| 20260902010517 | 86 | 247 | 1.0 | 3.0 | 0.00 | 0.20 | 0.20 | 69 | 1014.4 |
| 20260902005517 | 87 | 235 | 1.0 | 3.0 | 0.00 | 0.20 | 0.20 | 68 | 1014.3 |
| 20260902004517 | 87 | 231 | 0.0 | 3.0 | 0.00 | 0.20 | 0.20 | 67 | 1014.3 |
| 20260902003517 | 88 | 226 | 1.0 | 3.0 | 0.00 | 0.20 | 0.20 | 64 | 1014.2 |
| 20260902002518 | 89 | 248 | 0.0 | 2.0 | 0.00 | 0.20 | 0.20 | 64 | 1014.2 |
| 20260902001515 | 90 | 232 | 0.0 | 4.0 | 0.00 | 0.20 | 0.20 | 63 | 1014.3 |
| 20260902000518 | 91 | 237 | 1.0 | 3.0 | 0.00 | 0.20 | 0.20 | 61 | 1014.2 |
| 20260901235538 | 92 | 235 | 1.0 | 3.0 | 0.00 | 0.35 | 0.20 | 59 | 1014.3 |
| 20260901234515 | 93 | 258 | 0.0 | 3.0 | 0.00 | 0.65 | 0.20 | 57 | 1014.4 |
| 20260901233516 | 94 | 264 | 1.0 | 5.0 | 0.00 | 0.65 | 0.20 | 56 | 1014.4 |
| 20260901232516 | 95 | 241 | 0.0 | 3.0 | 0.00 | 0.65 | 0.20 | 55 | 1014.4 |
| 20260901231516 | 95 | 281 | 1.0 | 3.0 | 0.00 | 0.65 | 0.20 | 54 | 1014.4 |
| 20260901230536 | 95 | 274 | 0.0 | 3.0 | 0.00 | 0.65 | 0.20 | 54 | 1014.4 |
| 20260901225536 | 94 | 275 | 1.0 | 4.0 | 0.00 | 0.65 | 0.20 | 53 | 1014.4 |
| 20260901224516 | 94 | 279 | 1.0 | 5.0 | 0.00 | 0.65 | 0.20 | 53 | 1014.4 |
| 20260901223517 | 94 | 272 | 1.0 | 3.0 | 0.00 | 0.65 | 0.20 | 54 | 1014.4 |
| 20260901222517 | 94 | 277 | 1.0 | 4.0 | 0.00 | 0.65 | 0.20 | 56 | 1014.4 |
| 20260901221517 | 94 | 280 | 1.0 | 4.0 | 0.00 | 0.65 | 0.20 | 58 | 1014.5 |
| 20260901220517 | 95 | 276 | 1.0 | 4.0 | 0.00 | 0.65 | 0.20 | 57 | 1014.4 |
| 20260901215517 | 95 | 278 | 2.0 | 5.0 | 0.00 | 0.65 | 0.20 | 56 | 1014.4 |
| 20260901214517 | 94 | 279 | 2.0 | 5.0 | 0.00 | 0.65 | 0.20 | 56 | 1014.4 |
| 20260901213517 | 94 | 283 | 2.0 | 4.0 | 0.00 | 0.65 | 0.20 | 56 | 1014.4 |
| 20260901212518 | 95 | 273 | 1.0 | 4.0 | 0.00 | 0.65 | 0.20 | 56 | 1014.5 |
| 20260901211515 | 95 | 259 | 1.0 | 4.0 | 0.00 | 0.65 | 0.20 | 55 | 1014.5 |
| 20260901210536 | 95 | 276 | 1.0 | 5.0 | 0.00 | 0.65 | 0.20 | 54 | 1014.5 |
| 20260901205515 | 96 | 267 | 2.0 | 6.0 | 0.00 | 0.65 | 0.20 | 53 | 1014.5 |
| 20260901204515 | 96 | 266 | 1.0 | 5.0 | 0.00 | 0.65 | 0.20 | 53 | 1014.6 |
| 20260901203516 | 95 | 280 | 1.0 | 7.0 | 0.00 | 0.65 | 0.20 | 57 | 1014.7 |
| 20260901202516 | 96 | 269 | 2.0 | 5.0 | 0.00 | 0.65 | 0.20 | 56 | 1014.7 |
| 20260901201516 | 95 | 285 | 2.0 | 7.0 | 0.00 | 0.65 | 0.20 | 55 | 1014.7 |
| 20260901200516 | 95 | 277 | 1.0 | 6.0 | 0.00 | 0.65 | 0.20 | 56 | 1014.7 |
| 20260901195517 | 95 | 282 | 2.0 | 6.0 | 0.00 | 0.65 | 0.20 | 56 | 1014.7 |
| 20260901194517 | 95 | 280 | 2.0 | 5.0 | 0.00 | 0.65 | 0.20 | 56 | 1014.8 |
| 20260901193522 | 95 | 279 | 3.0 | 7.0 | 0.00 | 0.65 | 0.20 | 56 | 1014.9 |
| 20260901192522 | 95 | 278 | 1.0 | 6.0 | 0.00 | 0.65 | 0.20 | 56 | 1014.9 |
| 20260901191522 | 94 | 278 | 2.0 | 5.0 | 0.00 | 0.65 | 0.20 | 58 | 1015.0 |
| 20260901190522 | 94 | 280 | 2.0 | 8.0 | 0.00 | 0.65 | 0.20 | 59 | 1015.1 |
| 20260901185521 | 94 | 282 | 2.0 | 6.0 | 0.00 | 0.65 | 0.20 | 60 | 1015.2 |
| 20260901184521 | 93 | 263 | 1.0 | 5.0 | 0.00 | 0.65 | 0.20 | 60 | 1015.2 |
| 20260901183516 | 93 | 271 | 1.0 | 5.0 | 0.00 | 0.65 | 0.20 | 60 | 1015.2 |
| 20260901182516 | 92 | 272 | 1.0 | 4.0 | 0.00 | 0.65 | 0.20 | 63 | 1015.3 |
| 20260901181515 | 92 | 277 | 3.0 | 7.0 | 0.00 | 0.65 | 0.20 | 63 | 1015.3 |
| 20260901180515 | 92 | 274 | 2.0 | 6.0 | 0.00 | 0.65 | 0.20 | 62 | 1015.3 |
| 20260901175556 | 91 | 287 | 3.0 | 8.0 | 0.00 | 0.65 | 0.20 | 63 | 1015.3 |
| 20260901174516 | 91 | 274 | 3.0 | 7.0 | 0.00 | 0.65 | 0.20 | 64 | 1015.4 |
| 20260901173515 | 90 | 269 | 2.0 | 6.0 | 0.00 | 0.65 | 0.20 | 65 | 1015.5 |
| 20260901172517 | 89 | 285 | 2.0 | 6.0 | 0.00 | 0.65 | 0.20 | 66 | 1015.5 |
| 20260901171536 | 89 | 287 | 1.0 | 5.0 | 0.00 | 0.65 | 0.20 | 67 | 1015.6 |
| 20260901170537 | 88 | 266 | 0.0 | 3.0 | 0.00 | 0.65 | 0.20 | 68 | 1015.6 |
| 20260901165537 | 88 | 272 | 1.0 | 4.0 | 0.00 | 0.65 | 0.20 | 69 | 1015.7 |
| 20260901164517 | 88 | 273 | 2.0 | 4.0 | 0.00 | 0.65 | 0.20 | 68 | 1015.7 |
| 20260901163517 | 88 | 262 | 1.0 | 4.0 | 0.00 | 0.65 | 0.20 | 67 | 1015.8 |
| 20260901162517 | 87 | 277 | 3.0 | 5.0 | 0.00 | 0.65 | 0.20 | 69 | 1015.9 |
| 20260901161537 | 86 | 278 | 2.0 | 6.0 | 0.00 | 0.65 | 0.20 | 71 | 1015.9 |
| 20260901160518 | 85 | 278 | 2.0 | 7.0 | 0.00 | 0.65 | 0.20 | 71 | 1015.9 |
| 20260901155518 | 86 | 284 | 3.0 | 6.0 | 0.00 | 0.65 | 0.20 | 71 | 1015.8 |
| 20260901154517 | 85 | 276 | 1.0 | 4.0 | 0.00 | 0.65 | 0.20 | 71 | 1015.8 |
| 20260901153518 | 84 | 276 | 1.0 | 4.0 | 0.00 | 0.65 | 0.20 | 73 | 1015.7 |
| 20260901152518 | 84 | 285 | 2.0 | 4.0 | 0.00 | 0.65 | 0.20 | 72 | 1015.7 |
| 20260901151515 | 84 | 268 | 2.0 | 5.0 | 0.00 | 0.65 | 0.20 | 72 | 1015.6 |
| 20260901150515 | 84 | 265 | 2.0 | 5.0 | 0.00 | 0.65 | 0.20 | 72 | 1015.6 |
| 20260901145516 | 84 | 283 | 1.0 | 4.0 | 0.00 | 0.70 | 0.20 | 72 | 1015.6 |
| 20260901144536 | 82 | 279 | 1.0 | 5.0 | 0.00 | 0.70 | 0.20 | 75 | 1015.5 |
| 20260901143516 | 81 | 268 | 1.0 | 4.0 | 0.00 | 0.70 | 0.20 | 77 | 1015.6 |
| 20260901142516 | 81 | 284 | 2.0 | 6.0 | 0.00 | 0.70 | 0.20 | 77 | 1015.6 |
| 20260901141516 | 80 | 298 | 2.0 | 6.0 | 0.00 | 0.70 | 0.20 | 78 | 1015.6 |
| 20260901140517 | 80 | 13 | 0.0 | 5.0 | 0.00 | 0.70 | 0.20 | 79 | 1015.5 |
| 20260901135517 | 78 | 301 | 0.0 | 3.0 | 0.00 | 0.78 | 0.20 | 81 | 1015.6 |
| 20260901134517 | 78 | 265 | 1.0 | 7.0 | 0.00 | 0.78 | 0.20 | 82 | 1015.7 |
| 20260901133517 | 78 | 257 | 1.0 | 3.0 | 0.00 | 0.78 | 0.20 | 82 | 1015.8 |
| 20260901132517 | 76 | 178 | 0.0 | 2.0 | 0.00 | 0.78 | 0.20 | 84 | 1015.8 |
| 20260901131517 | 76 | 233 | 0.0 | 4.0 | 0.00 | 0.78 | 0.20 | 86 | 1015.9 |
| 20260901130517 | 75 | 220 | 0.0 | 2.0 | 0.00 | 0.78 | 0.20 | 87 | 1016.0 |
| 20260901125518 | 75 | 236 | 0.0 | 3.0 | 0.00 | 0.78 | 0.20 | 88 | 1015.9 |
| 20260901124518 | 74 | 197 | 0.0 | 1.0 | 0.00 | 0.78 | 0.20 | 89 | 1015.8 |
| 20260901123518 | 74 | 135 | 0.0 | 2.0 | 0.00 | 0.78 | 0.20 | 90 | 1015.7 |
| 20260901122518 | 74 | 0.0 | 0.0 | 0.03 | 0.78 | 0.20 | 91 | 1015.6 | |
| 20260901121517 | 74 | 0.0 | 0.0 | 0.04 | 0.78 | 0.20 | 91 | 1015.5 | |
| 20260901120515 | 74 | 0.0 | 0.0 | 0.04 | 0.78 | 0.20 | 91 | 1015.4 | |
| 20260901115516 | 73 | 0.0 | 0.0 | 0.06 | 0.78 | 0.20 | 91 | 1015.3 | |
| 20260901114516 | 73 | 236 | 0.0 | 2.0 | 0.08 | 0.78 | 0.20 | 91 | 1015.1 |
| 20260901113516 | 74 | 194 | 0.0 | 2.0 | 0.09 | 0.78 | 0.20 | 91 | 1015.1 |
| 20260901112518 | 74 | 0.0 | 0.0 | 0.10 | 0.75 | 0.17 | 91 | 1015.1 | |
| 20260901111516 | 74 | 0.0 | 0.0 | 0.16 | 0.75 | 0.17 | 90 | 1014.9 | |
| 20260901110517 | 74 | 0.0 | 0.0 | 0.16 | 0.75 | 0.17 | 90 | 1014.8 | |
| 20260901105517 | 74 | 0.0 | 0.0 | 0.14 | 0.73 | 0.15 | 89 | 1014.8 | |
| 20260901104537 | 74 | 98 | 0.0 | 2.0 | 0.12 | 0.70 | 0.12 | 89 | 1014.8 |
| 20260901103517 | 75 | 94 | 0.0 | 2.0 | 0.11 | 0.69 | 0.11 | 88 | 1014.7 |
| 20260901102517 | 75 | 0.0 | 0.0 | 0.07 | 0.65 | 0.07 | 86 | 1014.7 | |
| 20260901101517 | 75 | 0.0 | 0.0 | 0.00 | 0.58 | 0.00 | 85 | 1014.9 | |
| 20260901100538 | 75 | 235 | 0.0 | 2.0 | 0.00 | 0.58 | 0.00 | 84 | 1014.9 |
| 20260901095518 | 75 | 240 | 0.0 | 2.0 | 0.00 | 0.58 | 0.00 | 83 | 1014.8 |
| 20260901094518 | 75 | 278 | 0.0 | 3.0 | 0.00 | 0.58 | 0.00 | 83 | 1014.7 |
| 20260901093515 | 76 | 268 | 0.0 | 3.0 | 0.00 | 0.58 | 0.00 | 83 | 1014.6 |
| 20260901092518 | 76 | 267 | 0.0 | 3.0 | 0.00 | 0.58 | 0.00 | 83 | 1014.5 |
| 20260901091515 | 76 | 255 | 0.0 | 3.0 | 0.00 | 0.58 | 0.00 | 82 | 1014.4 |
| 20260901090536 | 76 | 245 | 1.0 | 3.0 | 0.00 | 0.58 | 0.00 | 81 | 1014.5 |
| 20260901085516 | 76 | 246 | 1.0 | 4.0 | 0.00 | 0.58 | 0.00 | 81 | 1014.5 |
| 20260901084516 | 76 | 252 | 1.0 | 5.0 | 0.00 | 0.58 | 0.00 | 81 | 1014.6 |